Arlington, TX

10:19 PM CDT on August 31, 2016 (GMT -0500)
Grand Prairie Municipal

Weather History for KGPM - September, 2013

Change the Weather History Date:

Tuesday, September 17, 2013

  Actual Average (KDFW) Record (KDFW)
Temperature  
Mean Temperature 84 °F 77 °F  
Max Temperature 91 °F 88 °F 99 °F (1997)
Min Temperature 78 °F 67 °F 44 °F (1903)
Degree Days  
Heating Degree Days 0 0  
Month to date heating degree days 0  
Since 1 July heating degree days 0  
Cooling Degree Days 20 13  
Month to date cooling degree days 261  
Year to date cooling degree days 2443  
Growing Degree Days 34 (Base 50)    
Moisture  
Dew Point 62 °F    
Average Humidity 48    
Maximum Humidity 61    
Minimum Humidity 34    
Precipitation  
Precipitation 0.00 in 0.07 in 1.76 in (1908)
Month to date precipitation 1.55  
Year to date precipitation 25.66  
Sea Level Pressure  
Sea Level Pressure 30.04 in    
Wind  
Wind Speed 3 mph (SSE)    
Max Wind Speed 7 mph    
Max Gust Speed -    
Visibility 10 miles    
Events      
T = Trace of Precipitation, MM = Missing Value Source: NWS Daily Summary

Daily Weather History Graph

Daily Weather History Graph

Search for Another Location

Airport or City:

Trip Planner

Search our weather history database for the weather conditions in past years. The results will help you decide how hot, cold, wet, or windy it might be!

Date:

Astronomy

Sep. 17, 2013 Rise Set
Actual Time 7:13 AM CDT 7:31 PM CDT
Civil Twilight 6:48 AM CDT 7:55 PM CDT
Nautical Twilight 6:19 AM CDT 8:24 PM CDT
Astronomical Twilight 5:50 AM CDT 8:53 PM CDT
Moon 6:16 PM CDT (9/17) 5:13 AM CDT (9/17)
Length of Visible Light 13h 07m
Length of Day
12h 17m
Waxing Gibbous, 96% of the Moon is Illuminated
Sep 17
Waxing Gibbous
Sep 19
Full
Sep 26
Last Quarter
Oct 4
New
Oct 11
First Quarter

Hourly Weather History & Observations

Time (CDT) Temp. Heat Index Dew Point Humidity Pressure Visibility Wind Dir Wind Speed Gust Speed Precip Events Conditions
12:15 AM 84.2 °F 84.4 °F 60.8 °F 45% 30.06 in 10.0 mi SSE 3.5 mph - N/A   Mostly Cloudy
12:35 AM 82.4 °F 82.9 °F 60.8 °F 48% 30.06 in 10.0 mi SE 3.5 mph - N/A   Scattered Clouds
12:55 AM 82.4 °F 82.9 °F 60.8 °F 48% 30.06 in 10.0 mi SSE 3.5 mph - N/A   Scattered Clouds
1:15 AM 82.4 °F 82.9 °F 60.8 °F 48% 30.06 in 10.0 mi SE 3.5 mph - N/A   Clear
1:35 AM 82.4 °F 82.9 °F 60.8 °F 48% 30.06 in 10.0 mi Calm Calm - N/A   Clear
1:55 AM 82.4 °F 82.9 °F 60.8 °F 48% 30.06 in 10.0 mi Calm Calm - N/A   Scattered Clouds
2:15 AM 82.4 °F 83.4 °F 62.6 °F 51% 30.06 in 10.0 mi Calm Calm - N/A   Clear
2:35 AM 80.6 °F 81.8 °F 62.6 °F 54% 30.06 in 10.0 mi Calm Calm - N/A   Clear
2:55 AM 80.6 °F 81.8 °F 62.6 °F 54% 30.06 in 10.0 mi South 3.5 mph - N/A   Clear
3:15 AM 80.6 °F 81.8 °F 62.6 °F 54% 30.06 in 10.0 mi South 3.5 mph - N/A   Clear
3:35 AM 80.6 °F 81.5 °F 60.8 °F 51% 30.06 in 10.0 mi SSW 4.6 mph - N/A   Clear
3:55 AM 80.6 °F 81.1 °F 59.0 °F 48% 30.06 in 10.0 mi SSW 4.6 mph - N/A   Clear
4:15 AM 80.6 °F 81.1 °F 59.0 °F 48% 30.05 in 10.0 mi SSW 4.6 mph - N/A   Clear
4:35 AM 80.6 °F 81.1 °F 59.0 °F 48% 30.05 in 10.0 mi SSW 3.5 mph - N/A   Clear
4:55 AM 80.6 °F 81.5 °F 60.8 °F 51% 30.06 in 10.0 mi SW 4.6 mph - N/A   Clear
5:15 AM 80.6 °F 81.5 °F 60.8 °F 51% 30.06 in 10.0 mi SSW 4.6 mph - N/A   Clear
5:35 AM 78.8 °F - 60.8 °F 54% 30.05 in 10.0 mi Calm Calm - N/A   Clear
5:55 AM 78.8 °F - 62.6 °F 57% 30.05 in 10.0 mi Calm Calm - N/A   Clear
6:15 AM 78.8 °F - 62.6 °F 57% 30.06 in 10.0 mi Calm Calm - N/A   Clear
6:35 AM 78.8 °F - 62.6 °F 57% 30.06 in 10.0 mi SW 3.5 mph - N/A   Clear
6:55 AM 78.8 °F - 62.6 °F 57% 30.07 in 10.0 mi Calm Calm - N/A   Clear
7:50 AM 78.8 °F - 64.4 °F 61% 30.09 in 10.0 mi Calm Calm - N/A   Clear
8:50 AM 80.6 °F 82.3 °F 64.4 °F 58% 30.09 in 10.0 mi Calm Calm - N/A   Clear
9:50 AM 84.2 °F 86.6 °F 66.2 °F 55% 30.10 in 10.0 mi Calm Calm - N/A   Clear
10:50 AM 84.2 °F 86.6 °F 66.2 °F 55% 30.11 in 10.0 mi SSE 4.6 mph - N/A   Clear
11:50 AM 87.8 °F 89.4 °F 64.4 °F 46% 30.11 in 10.0 mi SE 6.9 mph - N/A   Clear
12:50 PM 89.6 °F 90.1 °F 62.6 °F 40% 30.09 in 10.0 mi SSW 3.5 mph - N/A   Clear
1:50 PM 89.6 °F 88.9 °F 59.0 °F 36% 30.06 in 10.0 mi South 3.5 mph - N/A   Mostly Cloudy
2:50 PM 89.6 °F 90.1 °F 62.6 °F 40% 30.03 in 10.0 mi ESE 6.9 mph - N/A   Mostly Cloudy
3:50 PM 91.4 °F 90.7 °F 59.0 °F 34% 29.99 in 10.0 mi South 6.9 mph - N/A   Mostly Cloudy
4:50 PM 91.4 °F 91.4 °F 60.8 °F 36% 29.98 in 10.0 mi ESE 5.8 mph - N/A   Mostly Cloudy
5:50 PM 91.4 °F 91.4 °F 60.8 °F 36% 29.98 in 10.0 mi SE 5.8 mph - N/A   Mostly Cloudy
6:51 PM 91.4 °F 91.4 °F 60.8 °F 36% 29.97 in 10.0 mi SE 3.5 mph - N/A   Mostly Cloudy
7:51 PM 89.6 °F 89.5 °F 60.8 °F 38% 29.98 in 10.0 mi SE 4.6 mph - N/A   Mostly Cloudy
9:15 PM 86.0 °F 86.1 °F 60.8 °F 43% 30.00 in 10.0 mi Calm Calm - N/A   Clear
9:35 PM 86.0 °F 86.1 °F 60.8 °F 43% 30.01 in 10.0 mi Calm Calm - N/A   Clear
9:55 PM 86.0 °F 86.1 °F 60.8 °F 43% 30.01 in 10.0 mi Calm Calm - N/A   Mostly Cloudy
10:15 PM 84.2 °F 84.4 °F 60.8 °F 45% 30.01 in 10.0 mi SSE 3.5 mph - N/A   Mostly Cloudy
10:35 PM 84.2 °F 84.4 °F 60.8 °F 45% 30.01 in 10.0 mi SSE 3.5 mph - N/A   Scattered Clouds
11:15 PM 84.2 °F 84.4 °F 60.8 °F 45% 30.01 in 10.0 mi SSE 3.5 mph - N/A   Clear
11:35 PM 82.4 °F 82.9 °F 60.8 °F 48% 30.01 in 10.0 mi SSE 4.6 mph - N/A   Clear
11:55 PM 84.2 °F 84.4 °F 60.8 °F 45% 30.01 in 10.0 mi SSE 4.6 mph - N/A   Clear